Location: Unspecified
(0.0000°N, 0.0000°E)
Time: 02:19:33
(UTC+02:00)

SWIFT - Pass Details

Date: 23 April 2018
Orbit: 546 x 562 km, 20.6° (Epoch: 25 May)

Event Time Altitude Azimuth Distance (km) Brightness Sun altitude
Rises 22:00:49 0° 276° (W) 2,728 7.0 -29.8°
Reaches altitude 10° 22:03:37 10° 294° (WNW) 1,833 5.9 -30.5°
Enters shadow 22:06:06 19° 329° (NNW) 1,363 4.7 -31.1°
